Location: Beaver Brook Trail
(44.0290°N, 71.8137°W)
Time: 02:48:33
(UTC+00:00)

SR - Pass Details

Date: 19 November 2024
Orbit: 573 x 858 km, 66.7° (Epoch: 03 December)

Event Time Altitude Azimuth Distance (km) Brightness Sun altitude
Exits shadow 10:08:32 11° 338° (NNW) 2,202 ? -17.7°
Maximum altitude 10:13:27 52° 54° (NE) 987 ? -16.9°
Drops below altitude 10° 10:18:56 10° 130° (SE) 2,432 ? -15.9°
Sets 10:21:30 0° 135° (SE) 3,387 ? -15.5°
